Satellite-Ground Cal/Val Site Overpasses Predictions

Prediction of Satellite NPP Overpassing Cal/Val Site: Antarctic Dome C

Ground Cal/Val Site Location: Latitude: -75.10, Longitude: 123.35; Satellite-Ground Site NADIR distance within 100 km.

Table of predicted overpasses for the next 14.0 days since TLE Epoch: 1/15/2016
Interval Starting Time Ending Time Minimum Distance Time Minimum Distance (km)
1 01/16/2016 15:03:11 01/16/2016 15:03:35 01/16/2016 15:03:23 56.71
2 01/17/2016 14:44:21 01/17/2016 14:44:45 01/17/2016 14:44:33 52.48
3 01/18/2016 07:46:02 01/18/2016 07:46:21 01/18/2016 07:46:11 73.94
4 01/19/2016 07:27:07 01/19/2016 07:27:34 01/19/2016 07:27:21 34.09
5 01/21/2016 15:09:31 01/21/2016 15:09:40 01/21/2016 15:09:35 94.30
6 01/22/2016 14:50:30 01/22/2016 14:50:59 01/22/2016 14:50:45 17.04
7 01/24/2016 07:33:18 01/24/2016 07:33:47 01/24/2016 07:33:33 3.91
8 01/27/2016 14:56:41 01/27/2016 14:57:10 01/27/2016 14:56:56 19.45
9 01/28/2016 14:37:59 01/28/2016 14:38:13 01/28/2016 14:38:06 87.82
